Change the Weather History Date:

Monday, January 21, 2013

  Actual Average (KDAY) Record (KDAY)
Temperature  
Mean Temperature 20 °F 27 °F  
Max Temperature 27 °F 35 °F 75 °F (1906)
Min Temperature 12 °F 20 °F -20 °F (1984)
Degree Days  
Heating Degree Days 46 38  
Month to date heating degree days 792  
Since 1 July heating degree days 2951  
Cooling Degree Days 0 0  
Month to date cooling degree days 0  
Year to date cooling degree days 0  
Moisture  
Dew Point 11 °F    
Average Humidity 68    
Maximum Humidity 85    
Minimum Humidity 49    
Precipitation  
Precipitation 0.00 in 0.08 in 4.16 in (1959)
Month to date precipitation 1.91  
Year to date precipitation 1.91  
Snow  
Snow 0.00 in 0.30 in 4.00 in (1926)
Month to date snowfall 5.4  
Since 1 July snowfall 10.9  
Snow Depth -    
Sea Level Pressure  
Sea Level Pressure 30.16 in    
Wind  
Wind Speed 10 mph (WNW)    
Max Wind Speed 26 mph    
Max Gust Speed 33 mph    
Visibility 10 miles    
Events Snow    
T = Trace of Precipitation, MM = Missing Value Source: NWS Daily Summary

Daily Weather History Graph

Daily Weather History Graph

Search for Another Location

Airport or City:

Trip Planner

Search our weather history database for the weather conditions in past years. The results will help you decide how hot, cold, wet, or windy it might be!

Date:

Astronomy

Jan. 21, 2013 Rise Set
Actual Time 7:53 AM EST 5:45 PM EST
Civil Twilight 7:24 AM EST 6:14 PM EST
Nautical Twilight 6:51 AM EST 6:47 PM EST
Astronomical Twilight 6:19 AM EST 7:19 PM EST
Moon 1:24 PM EST (1/21) 3:20 AM EST (1/21)
Length of Visible Light 10h 50m
Length of Day
9h 51m
Waxing Gibbous, 75% of the Moon is Illuminated
Jan 21
Waxing Gibbous
Jan 26
Full
Feb 3
Last Quarter
Feb 10
New
Feb 17
First Quarter

Hourly Weather History & Observations

Time (EST) Temp. Windchill Dew Point Humidity Pressure Visibility Wind Dir Wind Speed Gust Speed Precip Events Conditions
12:15 AM 27.9 °F 19.8 °F 18.9 °F 69% 30.19 in 10.0 mi NW 8.1 mph - N/A   Overcast
12:35 AM 25.3 °F 18.5 °F 16.5 °F 69% 30.18 in 10.0 mi NW 5.8 mph - N/A   Overcast
12:55 AM 25.3 °F 18.5 °F 16.7 °F 70% 30.18 in 10.0 mi WNW 5.8 mph - N/A   Overcast
1:15 AM 25.3 °F 19.7 °F 17.1 °F 71% 30.17 in 10.0 mi NW 4.6 mph - N/A   Overcast
1:35 AM 25.3 °F 21.1 °F 17.2 °F 71% 30.16 in 10.0 mi WNW 3.5 mph - N/A   Overcast
1:55 AM 25.3 °F 19.7 °F 17.6 °F 72% 30.16 in 10.0 mi WNW 4.6 mph - N/A   Overcast
2:15 AM 25.3 °F 19.7 °F 17.6 °F 72% 30.16 in 10.0 mi WNW 4.6 mph - N/A   Overcast
2:35 AM 25.3 °F 18.5 °F 17.2 °F 71% 30.16 in 10.0 mi WNW 5.8 mph - N/A   Overcast
2:55 AM 25.3 °F 19.7 °F 16.7 °F 70% 30.16 in 10.0 mi WNW 4.6 mph - N/A   Overcast
3:15 AM 25.3 °F 19.7 °F 16.7 °F 70% 30.15 in 10.0 mi WNW 4.6 mph - N/A   Overcast
3:35 AM 25.3 °F 19.7 °F 16.5 °F 69% 30.15 in 10.0 mi West 4.6 mph - N/A   Overcast
3:55 AM 25.3 °F 17.6 °F 16.7 °F 70% 30.15 in 10.0 mi West 6.9 mph - N/A   Overcast
4:15 AM 25.3 °F 19.7 °F 17.1 °F 71% 30.14 in 10.0 mi WNW 4.6 mph - N/A   Overcast
4:35 AM 25.3 °F 19.7 °F 17.6 °F 72% 30.13 in 10.0 mi WNW 4.6 mph - N/A   Overcast
4:55 AM 25.3 °F 18.5 °F 16.9 °F 70% 30.13 in 10.0 mi West 5.8 mph - N/A   Overcast
5:15 AM 25.3 °F 18.5 °F 17.2 °F 71% 30.13 in 10.0 mi WNW 5.8 mph - N/A   Overcast
5:55 AM 25.3 °F 17.6 °F 18.3 °F 75% 30.13 in 10.0 mi West 6.9 mph - N/A   Overcast
6:15 AM 25.3 °F 17.6 °F 17.6 °F 72% 30.12 in 10.0 mi WNW 6.9 mph - N/A   Overcast
6:35 AM 25.3 °F 16.7 °F 17.8 °F 73% 30.12 in 10.0 mi West 8.1 mph - N/A   Overcast
6:55 AM 25.3 °F 14.7 °F 17.6 °F 72% 30.12 in 10.0 mi West 11.5 mph 16.1 mph N/A   Overcast
7:15 AM 23.9 °F 12.9 °F 16.3 °F 73% 30.12 in 10.0 mi West 11.5 mph 19.6 mph N/A   Overcast
7:35 AM 23.0 °F 10.6 °F 15.3 °F 72% 30.12 in 10.0 mi West 13.8 mph 19.6 mph N/A   Overcast
7:55 AM 22.8 °F 10.4 °F 15.8 °F 74% 30.12 in 10.0 mi West 13.8 mph 17.3 mph N/A   Overcast
8:15 AM 22.8 °F 14.5 °F 16.7 °F 77% 30.12 in 10.0 mi West 6.9 mph - N/A   Overcast
8:35 AM 22.8 °F 10.4 °F 17.1 °F 79% 30.13 in 10.0 mi West 13.8 mph - N/A Snow Light Snow
8:55 AM 22.8 °F 12.2 °F 17.2 °F 79% 30.13 in 7.0 mi WNW 10.4 mph 19.6 mph N/A Snow Light Snow
9:15 AM 22.8 °F 12.9 °F 18.1 °F 82% 30.13 in 4.0 mi West 9.2 mph - N/A Snow Light Snow
9:35 AM 22.8 °F 11.5 °F 16.0 °F 75% 30.12 in 10.0 mi West 11.5 mph 19.6 mph N/A Snow Light Snow
9:55 AM 23.0 °F 11.7 °F 14.7 °F 71% 30.12 in 10.0 mi West 11.5 mph 23.0 mph N/A   Mostly Cloudy
10:15 AM 22.8 °F 10.9 °F 14.5 °F 71% 30.12 in 10.0 mi West 12.7 mph 17.3 mph N/A   Mostly Cloudy
10:35 AM 23.2 °F 10.8 °F 15.1 °F 71% 30.13 in 10.0 mi WNW 13.8 mph 23.0 mph N/A   Overcast
10:55 AM 24.4 °F 13.5 °F 16.5 °F 72% 30.12 in 10.0 mi West 11.5 mph 18.4 mph N/A Snow Light Snow
11:15 AM 22.8 °F 10.4 °F 18.5 °F 83% 30.12 in 1.5 mi West 13.8 mph 19.6 mph N/A Snow Light Snow
11:35 AM 22.8 °F 10.9 °F 18.9 °F 85% 30.12 in 3.0 mi West 12.7 mph 17.3 mph N/A Snow Light Snow
11:55 AM 21.9 °F 8.2 °F 18.0 °F 85% 30.12 in 1.5 mi West 16.1 mph 25.3 mph N/A Snow Light Snow
12:15 PM 23.0 °F 8.0 °F 12.4 °F 64% 30.12 in 10.0 mi West 20.7 mph 33.4 mph N/A   Overcast
12:35 PM 24.6 °F 8.5 °F 14.7 °F 66% 30.12 in 7.0 mi West 26.5 mph 32.2 mph N/A Snow Light Snow
12:55 PM 22.8 °F 8.1 °F 12.0 °F 63% 30.12 in 10.0 mi West 19.6 mph 25.3 mph N/A   Overcast
1:15 PM 22.1 °F 6.8 °F 11.3 °F 63% 30.12 in 7.0 mi West 20.7 mph 33.4 mph N/A Snow Light Snow
1:35 PM 21.0 °F 5.7 °F 9.3 °F 61% 30.12 in 10.0 mi West 19.6 mph 27.6 mph N/A   Overcast
1:55 PM 20.3 °F 4.0 °F 6.4 °F 55% 30.13 in 10.0 mi West 21.9 mph 27.6 mph N/A   Mostly Cloudy
2:15 PM 20.3 °F 6.1 °F 7.5 °F 58% 30.13 in 10.0 mi West 16.1 mph 26.5 mph N/A   Mostly Cloudy
2:35 PM 21.0 °F 5.7 °F 7.5 °F 56% 30.13 in 10.0 mi West 19.6 mph 27.6 mph N/A   Overcast
2:55 PM 21.9 °F 6.5 °F 6.6 °F 52% 30.13 in 10.0 mi West 20.7 mph 27.6 mph N/A   Mostly Cloudy
3:15 PM 20.8 °F 4.4 °F 4.5 °F 49% 30.14 in 10.0 mi West 23.0 mph 31.1 mph N/A   Mostly Cloudy
3:35 PM 19.4 °F 6.0 °F 5.2 °F 54% 30.15 in 10.0 mi West 13.8 mph 26.5 mph N/A   Mostly Cloudy
3:55 PM 20.3 °F 4.4 °F 4.5 °F 50% 30.16 in 10.0 mi WNW 20.7 mph 28.8 mph N/A   Mostly Cloudy
4:15 PM 19.9 °F 6.7 °F 4.8 °F 52% 30.16 in 10.0 mi West 13.8 mph 27.6 mph N/A   Scattered Clouds
4:35 PM 19.0 °F 2.7 °F 3.2 °F 50% 30.16 in 10.0 mi West 20.7 mph 29.9 mph N/A   Mostly Cloudy
4:55 PM 19.0 °F 5.0 °F 3.6 °F 51% 30.17 in 10.0 mi West 15.0 mph 25.3 mph N/A   Mostly Cloudy
5:15 PM 18.3 °F 5.9 °F 7.2 °F 62% 30.17 in 10.0 mi WNW 11.5 mph 20.7 mph N/A   Scattered Clouds
5:35 PM 17.6 °F 5.0 °F 8.4 °F 67% 30.18 in 10.0 mi WNW 11.5 mph 17.3 mph N/A   Mostly Cloudy
5:55 PM 16.5 °F 3.6 °F 8.6 °F 71% 30.19 in 10.0 mi WNW 11.5 mph - N/A   Mostly Cloudy
6:15 PM 15.3 °F 2.8 °F 7.2 °F 70% 30.20 in 10.0 mi WNW 10.4 mph 17.3 mph N/A   Mostly Cloudy
6:35 PM 15.3 °F 1.4 °F 6.6 °F 69% 30.20 in 10.0 mi WNW 12.7 mph 21.9 mph N/A   Scattered Clouds
6:55 PM 15.3 °F 3.5 °F 7.0 °F 70% 30.21 in 10.0 mi NW 9.2 mph - N/A   Clear
7:15 PM 15.3 °F 2.8 °F 6.6 °F 69% 30.21 in 10.0 mi WNW 10.4 mph - N/A   Clear
7:35 PM 14.0 °F -0.2 °F 5.2 °F 68% 30.21 in 10.0 mi WNW 12.7 mph 16.1 mph N/A   Clear
7:55 PM 12.9 °F 0.7 °F 4.1 °F 68% 30.21 in 10.0 mi WNW 9.2 mph - N/A   Clear
8:15 PM 12.7 °F 2.4 °F 4.8 °F 71% 30.22 in 10.0 mi WNW 6.9 mph 16.1 mph N/A   Clear
8:35 PM 12.7 °F 2.4 °F 4.8 °F 71% 30.23 in 10.0 mi West 6.9 mph 17.3 mph N/A   Clear
8:55 PM 12.7 °F 0.4 °F 4.6 °F 70% 30.23 in 10.0 mi WNW 9.2 mph - N/A   Clear
9:15 PM 12.7 °F 0.4 °F 5.2 °F 72% 30.24 in 10.0 mi WNW 9.2 mph - N/A   Clear
9:35 PM 12.7 °F 0.4 °F 4.5 °F 70% 30.25 in 10.0 mi WNW 9.2 mph - N/A   Clear
9:55 PM 12.7 °F 0.4 °F 2.8 °F 65% 30.25 in 10.0 mi WNW 9.2 mph 21.9 mph N/A   Clear
10:15 PM 12.7 °F -1.8 °F 2.1 °F 63% 30.25 in 10.0 mi WNW 12.7 mph 19.6 mph N/A   Clear
10:35 PM 12.7 °F -2.5 °F 1.4 °F 61% 30.26 in 10.0 mi West 13.8 mph 23.0 mph N/A   Clear
10:55 PM 12.7 °F -0.4 °F 1.0 °F 60% 30.27 in 10.0 mi WNW 10.4 mph 21.9 mph N/A   Clear
11:15 PM 12.7 °F -2.5 °F 1.2 °F 60% 30.27 in 10.0 mi WNW 13.8 mph 19.6 mph N/A   Clear
11:35 PM 12.7 °F -2.5 °F 1.6 °F 61% 30.26 in 10.0 mi WNW 13.8 mph 18.4 mph N/A   Clear
11:55 PM 12.7 °F -0.4 °F 2.1 °F 63% 30.26 in 10.0 mi WNW 10.4 mph 18.4 mph N/A   Clear